Theta_e
315 317 319 320 320 317 315 314 314 313 311 310 312 311 310 309 308 307 307 308 308 308 311 311 310 310 311 313 314 316 319 319 317 317 316 317 319 322 322 325 324 324 326 330 330
311 314 317 318 320 317 314 314 313 312 310 309 311 310 309 305 306 305 305 304 310 312 311 309 309 309 311 311 313 315 318 316 314 315 315 316 317 318 320 324 323 324 326 330 329
309 310 315 317 320 318 314 313 311 311 310 309 310 310 307 306 306 305 305 308 313 312 309 308 307 307 309 310 312 313 315 314 313 314 314 315 316 319 320 322 323 324 324 330 329
308 309 310 315 317 318 314 313 310 310 309 309 309 309 307 305 307 308 312 312 311 309 308 307 307 306 306 308 309 311 311 312 312 312 314 317 318 319 321 322 320 322 326 327 330
307 308 309 312 315 318 314 309 310 309 308 308 309 309 306 307 306 306 310 311 310 307 305 305 306 305 305 304 305 306 308 309 310 311 312 313 316 318 319 320 322 324 324 326 330
306 306 308 311 314 317 313 308 308 307 308 308 309 308 306 308 302 305 307 307 306 305 305 305 306 306 306 306 305 305 305 306 307 308 311 312 313 315 318 319 323 323 324 325 328
306 306 307 311 313 315 310 309 307 306 307 307 308 308 308 308 302 304 305 305 305 305 305 305 305 306 306 306 306 306 307 306 305 307 310 311 313 314 315 319 321 321 322 323 324
306 306 306 310 312 311 309 309 307 303 305 304 308 308 308 303 303 304 304 305 306 305 305 305 306 306 306 306 307 308 309 310 306 306 308 309 314 312 313 320 320 321 323 322 323
305 305 306 308 310 310 309 307 304 306 307 308 308 308 306 303 303 303 304 305 305 306 306 306 306 307 307 307 308 308 310 309 308 305 309 311 315 313 316 319 320 320 321 320 323
304 304 305 310 312 308 305 304 307 308 308 307 305 305 305 305 305 304 305 304 305 305 307 307 308 307 307 308 310 312 311 307 307 305 309 312 315 317 319 320 320 320 320 321 324
305 304 305 312 309 306 304 306 305 306 305 306 306 306 305 304 304 305 305 305 305 305 307 306 308 308 307 308 309 310 309 308 308 305 311 312 315 315 317 319 319 319 319 322 324
305 305 304 308 306 305 306 305 306 307 308 305 306 306 306 306 306 306 305 307 307 308 307 307 308 307 310 310 312 313 310 310 309 309 312 313 316 315 317 317 318 319 319 321 323
304 304 304 307 306 305 305 305 304 304 308 308 307 307 307 306 308 308 306 307 309 310 310 310 310 308 310 311 310 311 311 310 314 313 313 314 317 319 319 319 318 318 318 320 323
304 304 307 308 306 306 305 304 304 304 314 309 309 309 307 306 309 308 305 307 309 310 310 311 308 310 311 311 309 310 309 310 316 316 321 318 322 321 321 322 320 318 321 322 324
303 304 308 306 306 306 305 305 304 304 317 307 309 307 308 309 311 311 306 306 309 311 308 314 311 311 312 310 308 312 313 312 318 319 323 324 327 322 321 323 322 323 320 323 323
302 305 307 305 305 304 304 305 304 317 314 311 309 311 311 311 312 312 310 307 306 309 310 311 310 311 313 313 311 312 315 316 320 322 322 321 323 325 320 321 322 319 322 323 323
302 303 306 305 306 304 304 305 316 317 304 311 311 310 312 312 312 313 315 315 317 318 320 316 316 314 315 315 313 312 320 325 325 326 323 321 322 323 316 313 318 317 313 321 321
302 306 307 305 304 303 304 308 318 308 310 308 310 310 313 312 313 312 315 318 314 315 319 321 319 314 316 318 320 315 320 323 327 325 323 320 322 320 316 314 313 313 313 315 318
305 305 304 304 304 303 307 316 314 310 308 311 310 313 313 312 312 313 315 316 315 314 320 321 321 316 317 318 318 319 318 313 319 318 321 321 317 317 314 314 315 315 313 314 314
305 305 303 303 303 304 311 312 311 306 308 309 311 311 313 313 314 314 315 315 315 313 312 317 320 317 317 318 318 316 313 320 323 322 320 320 320 320 315 314 314 314 313 313 313
304 305 303 303 303 306 313 311 309 307 309 311 310 311 312 312 314 314 314 315 314 314 313 314 319 320 318 318 319 319 318 316 315 316 317 318 317 313 313 314 314 313 313 313 313
305 307 303 303 308 308 309 309 308 309 311 312 311 312 312 313 314 314 315 315 313 313 315 313 318 320 319 315 313 316 317 315 323 316 317 317 317 313 314 314 314 313 313 313 313
305 305 303 305 310 309 309 311 310 310 312 312 312 311 312 313 315 314 314 314 313 314 314 312 315 321 319 317 315 316 315 315 315 321 318 319 317 313 314 313 313 313 313 313 312
307 307 305 306 306 308 310 311 309 311 312 311 312 312 313 313 313 314 314 314 313 312 311 313 314 316 320 318 316 317 315 315 318 326 317 316 316 313 312 312 312 312 312 312 311
309 306 306 308 308 307 308 311 310 311 312 311 312 312 312 312 312 313 314 313 312 311 312 314 315 314 313 313 314 314 314 315 317 316 319 316 314 313 312 311 311 311 311 311 310
309 307 306 306 307 308 309 312 310 311 312 311 312 312 312 313 312 313 313 313 314 313 313 313 315 313 313 312 313 312 312 313 314 315 315 314 314 311 311 310 310 310 310 310 309
304 305 308 306 307 308 310 311 310 311 311 311 312 312 313 312 311 311 311 311 311 313 313 313 314 315 316 311 311 313 310 311 312 311 312 314 313 311 311 310 310 310 309 307 305
Wind_Speed
19 21 22 24 22 14 11 8 7 7 5 6 7 5 4 5 9 8 9 3 1 6 2 5 6 5 8 12 15 9 10 18 25 25 21 22 21 22 15 19 23 15 17 4 18
20 18 19 17 19 16 13 7 6 6 5 5 5 5 5 7 9 12 7 6 4 4 8 6 6 5 9 9 9 13 13 22 19 19 20 22 24 23 19 26 18 21 10 7 21
21 20 18 15 16 20 13 8 7 5 4 5 5 5 4 6 11 1 5 8 5 5 1 2 4 7 11 11 14 16 21 19 18 18 17 22 20 14 17 13 16 19 24 10 16
21 21 21 21 19 21 14 11 6 4 4 4 5 4 2 2 2 5 7 6 7 4 1 4 6 8 8 10 14 19 21 17 20 21 15 17 15 18 16 21 18 21 9 12 12
21 21 20 20 17 21 17 10 8 7 3 3 4 4 1 4 7 7 7 7 7 2 6 7 9 9 12 8 11 17 19 20 19 18 17 18 18 18 19 16 10 11 11 11 14
22 21 20 21 23 20 19 12 9 5 6 3 5 2 1 6 2 6 7 5 4 5 7 7 6 6 10 12 13 14 16 18 20 20 17 18 21 22 18 17 13 14 14 9 10
21 21 21 20 25 24 16 14 11 8 5 3 5 4 5 8 1 5 5 6 6 7 7 7 7 7 3 11 10 15 21 20 21 18 20 14 23 26 21 15 13 17 16 8 14
19 20 22 17 11 19 18 16 9 6 5 8 6 4 4 1 4 5 7 7 6 7 7 5 6 11 11 9 14 16 19 18 22 21 20 21 20 22 22 10 16 14 10 12 14
17 21 22 23 21 19 19 13 9 6 5 7 7 2 4 2 6 7 9 10 10 7 6 7 6 8 3 7 9 12 14 19 21 20 18 19 16 18 8 8 12 10 12 11 12
15 20 23 24 23 23 17 16 11 12 10 7 4 3 5 2 4 4 7 9 8 9 9 10 6 5 4 6 11 7 14 18 17 18 20 20 16 4 8 11 11 9 8 11 10
14 16 17 21 27 24 27 16 6 3 6 5 6 2 1 3 3 6 8 8 11 10 13 9 6 12 15 16 20 16 16 14 16 19 21 20 17 15 12 10 13 10 9 9 12
12 13 10 7 19 18 17 2 2 3 4 11 2 5 6 2 4 6 6 7 10 12 12 5 15 15 11 15 15 16 13 17 17 14 18 18 15 12 12 13 14 11 10 11 9
12 13 15 18 19 17 6 1 1 1 2 4 4 4 1 5 5 4 10 3 9 8 10 11 6 3 7 12 12 14 18 17 6 20 19 14 11 10 7 7 9 10 12 9 5
9 11 16 29 14 9 4 11 3 3 1 5 4 3 4 2 5 6 8 4 3 3 4 7 5 8 11 13 13 14 14 9 17 18 9 16 6 5 5 6 10 10 8 5 4
4 5 16 14 12 8 2 12 5 4 3 4 4 3 1 6 1 8 6 3 3 2 2 3 2 5 8 10 10 8 14 10 15 8 14 6 3 5 6 2 4 2 5 6 8
1 6 17 4 7 5 9 12 3 3 3 3 3 3 4 9 4 5 5 2 3 2 4 3 2 3 6 7 10 9 4 7 3 5 5 5 3 10 7 6 1 8 6 9 9
3 2 9 4 1 12 13 5 2 2 1 4 4 5 5 2 2 1 3 3 2 3 1 2 1 4 6 2 6 3 5 2 1 3 4 8 6 6 11 10 3 5 4 7 9
2 2 8 5 14 17 6 3 1 3 3 1 3 5 1 2 2 2 3 3 3 3 2 4 3 5 3 4 3 6 5 3 3 2 5 11 8 5 10 7 5 5 3 8 7
13 15 7 11 17 10 4 0 2 3 2 5 5 4 3 2 2 2 4 5 5 7 4 1 3 5 1 7 6 4 2 4 1 11 5 3 1 3 9 10 10 3 13 12 10
10 7 7 11 10 3 2 2 2 1 1 2 1 4 2 4 2 3 5 7 4 6 4 3 2 4 7 6 3 2 2 3 1 2 6 5 5 5 11 14 13 13 15 13 10
7 3 5 10 7 4 0 4 3 1 3 4 4 2 4 4 6 5 6 6 9 6 4 1 3 5 3 7 9 8 6 4 4 3 3 5 6 6 9 12 14 15 13 11 10
4 3 5 7 1 4 1 3 3 1 1 2 3 5 7 4 5 3 6 7 10 6 5 5 3 3 2 4 2 5 7 6 4 3 4 8 6 6 9 11 10 11 11 10 11
3 3 5 5 1 2 2 2 3 2 4 4 3 5 4 4 1 3 4 5 8 8 5 6 3 1 3 4 4 4 10 9 3 4 5 1 7 7 8 11 12 12 12 11 12
4 3 1 2 3 0 3 1 2 1 2 3 3 2 2 4 4 3 2 4 6 6 4 5 5 5 5 5 5 7 12 13 5 5 12 12 15 10 10 10 10 11 11 11 12
1 3 4 4 3 4 0 1 4 1 1 3 2 4 5 2 2 4 4 2 2 2 2 3 4 5 8 6 5 7 10 13 11 6 9 13 12 9 9 9 9 9 10 12 13
1 3 4 4 5 6 4 5 6 2 3 2 2 4 6 5 5 4 5 4 4 4 3 1 3 1 4 6 4 7 10 7 10 9 8 10 8 5 6 7 8 9 10 11 12
2 1 1 6 6 5 4 3 5 2 2 3 2 2 6 6 6 6 6 5 5 6 5 4 2 0 2 3 1 1 8 7 5 8 5 1 4 3 4 5 3 5 5 6 7
Wind_Direction
328 328 331 329 238 240 237 244 246 256 268 316 295 288 309 310 304 273 255 255 212 220 230 256 253 251 247 241 245 240 250 243 243 248 249 258 256 226 243 241 257 262 249 198 144
325 316 317 330 238 238 235 231 233 247 263 314 292 262 296 318 299 272 246 223 198 219 228 250 250 256 244 238 222 224 240 245 255 260 256 255 253 258 223 236 238 269 266 131 153
328 321 324 301 292 235 228 205 225 232 259 310 295 237 303 329 287 292 177 181 202 171 254 299 289 274 258 245 233 237 246 264 258 253 280 267 275 284 284 230 280 255 253 164 160
327 328 325 328 327 220 203 202 212 219 241 286 283 214 303 334 329 108 130 145 177 150 185 277 255 246 248 244 237 252 256 260 262 275 289 273 279 272 250 268 262 241 343 317 199
324 327 321 322 320 212 191 193 192 209 220 231 178 201 65 237 256 160 142 145 152 183 262 258 264 262 254 263 264 263 264 262 261 259 263 269 269 275 267 268 316 298 274 318 212
321 321 323 321 328 193 184 179 185 204 189 165 160 187 214 258 90 180 181 182 230 239 240 241 260 293 288 272 265 273 280 269 263 258 248 252 253 252 248 250 268 272 238 287 295
317 320 317 322 322 180 173 168 179 183 201 165 170 181 244 256 18 181 177 214 222 244 262 249 272 260 303 288 280 277 272 262 258 250 246 250 253 245 246 234 261 260 245 292 314
313 315 312 316 332 159 160 170 172 176 177 166 173 182 271 299 218 206 214 231 238 240 265 292 263 265 269 272 284 274 270 259 245 239 226 229 256 230 233 223 247 250 245 263 307
308 309 309 299 306 168 163 162 158 141 131 148 151 197 272 171 214 219 223 233 226 223 241 255 254 246 200 259 272 239 259 237 251 232 229 202 239 248 179 207 237 250 250 255 289
302 310 310 290 178 162 160 138 133 113 117 123 115 195 224 233 153 200 225 236 233 234 230 227 230 249 229 228 262 283 243 248 250 224 216 202 230 172 193 215 235 257 264 258 276
298 312 326 135 155 158 135 125 137 139 199 207 138 55 155 141 183 220 230 230 232 238 240 191 224 238 242 248 254 284 283 274 256 221 201 206 210 236 241 219 227 260 299 293 282
294 306 309 355 145 150 145 218 76 73 154 224 124 259 262 270 274 212 194 226 207 231 231 202 243 254 302 261 251 250 264 265 250 199 188 201 204 226 232 225 230 225 285 278 313
285 297 291 303 156 164 191 245 189 148 140 130 195 261 217 207 254 215 197 227 250 259 243 230 234 148 283 263 232 231 248 267 234 171 209 173 206 200 231 241 218 225 262 268 267
275 310 316 149 145 159 217 191 215 219 137 122 186 138 157 211 254 199 215 239 191 279 264 249 280 254 253 237 230 252 244 247 182 169 165 197 151 171 197 228 216 207 235 221 168
303 352 152 139 146 169 188 187 201 249 152 141 140 95 170 225 20 189 185 120 251 245 242 80 232 186 220 230 214 262 304 225 217 202 124 183 224 81 55 101 162 75 204 146 153
236 7 165 122 120 144 150 170 214 207 102 172 144 204 222 207 197 134 192 164 176 243 214 284 286 242 269 270 227 284 293 326 332 278 81 39 219 67 8 340 46 29 116 136 133
171 7 182 133 88 157 153 186 197 68 208 166 202 200 222 131 110 215 215 177 317 280 342 250 225 265 247 264 155 319 279 132 127 56 52 12 44 57 7 336 341 348 354 121 144
2 39 156 173 146 151 182 226 70 82 139 102 188 205 216 340 141 7 64 124 355 349 347 5 278 352 303 253 218 200 258 331 64 70 92 40 14 8 306 79 55 308 161 119 113
106 97 62 112 146 168 244 5 51 61 145 177 178 206 120 144 294 320 62 52 27 8 312 316 358 305 296 326 345 358 18 318 286 111 90 68 351 1 69 66 97 153 97 100 117
107 74 36 132 154 303 268 23 35 2 315 277 287 304 94 20 323 9 41 35 3 9 43 345 7 341 306 292 219 323 303 228 242 74 81 100 46 45 37 77 74 52 74 84 90
77 80 59 116 116 255 245 46 34 86 332 322 18 106 57 38 7 28 35 90 9 344 302 7 320 321 285 18 4 354 2 340 303 338 106 124 75 9 64 64 79 81 71 70 67
72 73 146 135 208 265 144 8 331 43 288 309 317 40 47 37 26 33 40 25 1 340 7 16 28 65 17 323 326 302 13 3 319 14 15 84 73 67 75 57 74 79 72 57 62
78 90 184 297 109 162 108 45 330 333 358 357 24 30 27 40 31 15 7 26 13 21 20 343 30 178 286 212 186 34 10 4 3 355 3 22 116 106 74 60 49 51 48 52 49
134 115 83 278 296 286 117 112 129 23 339 354 38 12 359 34 38 72 39 12 0 14 324 273 30 13 56 35 339 5 18 30 50 39 70 94 118 79 65 56 49 51 55 54 47
76 119 174 177 215 146 98 135 163 157 358 340 88 46 6 20 37 40 27 351 72 37 29 0 59 50 57 41 39 31 25 33 55 36 109 119 101 82 59 57 66 57 47 43 39
117 147 186 139 138 152 161 185 190 140 324 33 74 30 23 49 16 27 340 15 25 358 57 49 125 14 45 32 34 46 30 36 52 55 95 111 92 67 74 77 80 68 61 47 28
86 288 190 159 160 164 178 161 179 211 99 36 38 82 65 50 46 57 65 60 31 348 13 14 126 271 84 10 323 223 18 35 60 47 350 119 85 31 54 42 56 102 86 58 15